TimeMST,TemperatureF,Dew PointF,Humidity,Sea Level PressureIn,VisibilityMPH,Wind Direction,Wind SpeedMPH,Gust SpeedMPH,PrecipitationIn,Events,Conditions,WindDirDegrees,DateUTC
12:53 AM,5.0,1.0,84,30.19,10.0,Calm,Calm,-,N/A,,Clear,0,2013-02-11 07:53:00
1:53 AM,3.0,-2.0,80,30.22,10.0,West,5.8,-,N/A,,Clear,260,2013-02-11 08:53:00
2:53 AM,1.0,-4.0,79,30.22,10.0,WSW,5.8,-,N/A,,Clear,240,2013-02-11 09:53:00
3:53 AM,-0.9,-5.1,83,30.22,10.0,West,6.9,-,N/A,,Clear,260,2013-02-11 10:53:00
4:53 AM,1.9,-2.9,80,30.22,10.0,West,5.8,-,N/A,,Clear,260,2013-02-11 11:53:00
5:53 AM,1.0,-4.0,79,30.24,10.0,West,4.6,-,N/A,,Clear,280,2013-02-11 12:53:00
6:53 AM,1.9,-4.0,76,30.25,10.0,West,5.8,-,N/A,,Clear,280,2013-02-11 13:53:00
7:53 AM,1.9,-2.9,80,30.27,10.0,WSW,4.6,-,N/A,,Clear,240,2013-02-11 14:53:00
8:53 AM,10.0,3.0,73,30.24,10.0,WNW,4.6,-,N/A,,Mostly Cloudy,290,2013-02-11 15:53:00
9:53 AM,14.0,6.1,71,30.23,10.0,Calm,Calm,-,N/A,,Scattered Clouds,0,2013-02-11 16:53:00
10:53 AM,19.0,10.0,68,30.21,10.0,Calm,Calm,-,N/A,,Clear,0,2013-02-11 17:53:00
11:53 AM,19.9,10.0,65,30.19,10.0,Calm,Calm,-,N/A,,Clear,0,2013-02-11 18:53:00
12:53 PM,21.0,10.0,63,30.17,10.0,SSE,5.8,-,N/A,,Clear,160,2013-02-11 19:53:00
1:53 PM,23.0,12.0,63,30.15,10.0,South,10.4,-,N/A,,Partly Cloudy,170,2013-02-11 20:53:00
2:53 PM,23.0,12.9,65,30.16,10.0,SSE,10.4,-,N/A,,Partly Cloudy,160,2013-02-11 21:53:00
3:53 PM,23.0,10.9,60,30.17,10.0,SSE,5.8,-,N/A,,Clear,160,2013-02-11 22:53:00
4:53 PM,21.9,10.0,60,30.17,10.0,SSW,6.9,-,N/A,,Clear,200,2013-02-11 23:53:00
5:53 PM,19.9,9.0,62,30.19,10.0,SSW,4.6,-,N/A,,Clear,210,2013-02-12 00:53:00
6:53 PM,18.0,9.0,68,30.21,10.0,WSW,4.6,-,N/A,,Clear,250,2013-02-12 01:53:00
7:53 PM,10.9,5.0,77,30.25,10.0,West,6.9,-,N/A,,Clear,270,2013-02-12 02:53:00
8:53 PM,8.1,1.0,73,30.23,10.0,West,8.1,-,N/A,,Clear,260,2013-02-12 03:53:00
9:53 PM,7.0,-2.0,67,30.21,10.0,WNW,5.8,-,N/A,,Clear,290,2013-02-12 04:53:00
10:53 PM,12.0,-0.9,56,30.15,10.0,West,10.4,-,N/A,,Clear,280,2013-02-12 05:53:00
11:53 PM,14.0,-0.0,54,30.14,10.0,West,16.1,-,N/A,,Clear,280,2013-02-12 06:53:00